Overview Statistics Trail Chart Weather Telemetry Raw packets
 

This is the latest recevied weather packets stored in our database for station/object KD4EED. If no packets are shown the sender has not sent any weather packets the latest 10 day(s).

<< 74 75 76 77 78 79 80 >>
Time Temp. Humidity Pressure Rain* Wind** Luminosity Snow
1788146408 22.78° C 73% 1008.5 hPa - - 0 W/m² -
1788146107 22.78° C 73% 1008.5 hPa - - 0 W/m² -
1788145807 22.78° C 72% 1008.3 hPa - - 0 W/m² -
1788145506 22.78° C 72% 1008.4 hPa - - 0 W/m² -
1788145205 23.33° C 71% 1008.3 hPa - - 0 W/m² -
1788144904 23.33° C 70% 1008.4 hPa - - 0 W/m² -
1788144599 23.33° C 70% 1008.3 hPa - - 0 W/m² -
1788144295 23.89° C 70% 1008.1 hPa - - 0 W/m² -
1788143994 23.89° C 70% 1008.3 hPa - - 0 W/m² -
1788143692 23.89° C 70% 1008.1 hPa - - 0 W/m² -
1788143388 23.89° C 70% 1008.1 hPa - - 1 W/m² -
1788143086 24.44° C 69% 1008 hPa - - 1 W/m² -
1788142782 24.44° C 68% 1008.3 hPa - - 2 W/m² -
1788142481 25° C 67% 1008.1 hPa - - 4 W/m² -
1788142177 25° C 65% 1008.1 hPa - - 5 W/m² -
1788141884 25° C 64% 1007.9 hPa - - 7 W/m² -
1788141571 25.56° C 64% 1008 hPa - - 8 W/m² -
1788141268 25.56° C 63% 1008.1 hPa - - 12 W/m² -
1788140963 25.56° C 64% 1008 hPa - - 11 W/m² -
1788140663 26.11° C 63% 1008 hPa - - 19 W/m² -
1788140359 26.11° C 62% 1008 hPa - - 30 W/m² -
1788140054 26.67° C 62% 1007.9 hPa - - 37 W/m² -
1788139749 26.67° C 60% 1008.1 hPa - - 23 W/m² -
1788139444 26.67° C 61% 1008 hPa - - 29 W/m² -
1788139144 26.67° C 61% 1008.1 hPa - - 50 W/m² -

* Rain since midnight (hover to see other rain measurements)
** Current wind speed in m/s (hover to see current wind gust speed)